x

Yucatan Basin - 120 Nm Ese Of Cozumel, Mx (42056) Wave Buoy

3:40 - Mon 24th Apr 2017 All times are CDT. -5 hours from GMT.

  • Sig Wave height 3.6ft
  • Swell Direction
  • Average Period 5s
  • Wind
    16mph, 18mph gusts
  • Sea Temp 81°f
  • Aire Temp 80°f
  • Sea Pressure 1009.5mb
  •  Yucatan Basin - 120 Nm Ese Of Cozumel, Mx
  •  Yucatan Basin - 120 Nm Ese Of Cozumel, Mx

More Historic Weather Station data

Upgrade to MSW Pro to gain access to the past 30 days of data for over 8000 Wavebouys and Weather Stations around the globe.

Join Pro

Comparision Forecast

View Surf forecast
   
lun 04/24 3:40 3.5ft  -  5s 16 18 mph 1009.5mb 81f 80f
3:30  -   -   -  13 18 mph 1009.5mb 81f 80f
3:20  -   -   -  13 18 mph 1009.5mb 81f 80f
3:10  -   -   -  16 18 mph 1009.5mb 81f 80f
3:00  -   -   -  13 18 mph 1009.5mb 81f 80f
2:50 4ft 5s 5s 13 16 mph 1009.5mb 81f 80f
2:40  -   -   -  13 16 mph 1009.8mb 81f 80f
2:30  -   -   -  13 18 mph 1009.8mb 81f 80f
2:20  -   -   -  16 20 mph 1009.6mb 81f 80f
2:10  -   -   -  18 20 mph 1009.6mb 81f 80f
2:00  -   -   -  16 18 mph 1009.9mb 81f 80f
1:50 3.5ft 5s 4s 16 20 mph 1010mb 81f 80f
1:40  -   -   -  16 18 mph 1010mb 81f 80f
1:30  -   -   -  16 18 mph 1010.1mb 81f 80f
1:20  -   -   -  16 18 mph 1010.1mb 81f 80f
1:10  -   -   -  16 18 mph 1010.3mb 81f 80f
1:00  -   -   -  16 20 mph 1010.3mb 81f 80f
12:50 3.5ft 7s 4s 18 20 mph 1010.5mb 81f 80f
12:40 3.5ft  -  4s 16 18 mph 1010.6mb 81f 80f
12:30  -   -   -  16 20 mph 1010.8mb 81f 80f
12:20  -   -   -  18 20 mph 1010.9mb 81f 80f
12:10  -   -   -  16 20 mph 1011mb 81f 80f
12:00  -   -   -  16 20 mph 1011mb 81f 80f
dom 04/23 11:50 3ft 8s 4s 16 18 mph 1011.1mb 81f 80f
11:40  -   -   -  16 20 mph 1011.3mb 81f 80f
11:30  -   -   -  16 20 mph 1011.4mb 81f 80f
11:20  -   -   -  16 20 mph 1011.4mb 81f 81f
11:10  -   -   -  16 20 mph 1011.4mb 81f 81f
11:00  -   -   -  16 20 mph 1011.4mb 81f 81f
10:50 3ft 8s 4s 16 18 mph 1011.5mb - 81f
10:40 3ft  -  4s 16 20 mph 1011.5mb 81f 81f
10:30  -   -   -  16 20 mph 1011.5mb 81f 81f
10:20  -   -   -  13 18 mph 1011.4mb 81f 81f
10:10  -   -   -  16 18 mph 1011.3mb 81f 81f
10:00  -   -   -  16 18 mph 1011.3mb 81f 81f
9:50 2.5ft 7s 4s 16 18 mph 1011.3mb 81f 81f
9:40 2.5ft  -  4s 13 18 mph 1011.3mb 81f 81f
9:30  -   -   -  13 16 mph 1011.3mb 81f 81f
9:20  -   -   -  16 18 mph 1011.1mb 81f 81f
9:10  -   -   -  16 18 mph 1011mb 81f 81f
9:00  -   -   -  13 18 mph 1011mb 81f 81f
8:50 2.5ft 8s 5s 16 18 mph 1011mb 81f 81f
8:40  -   -   -  16 18 mph 1010.8mb 81f 81f
8:30  -   -   -  16 18 mph 1010.8mb 81f 81f
8:20  -   -   -  16 20 mph 1010.5mb - 81f
8:10  -   -   -  16 20 mph 1010.5mb 82f 81f
8:00  -   -   -  16 18 mph 1010.3mb 82f 81f
7:50 2.5ft 7s 5s 13 18 mph 1010mb 82f 81f
7:40 2.5ft  -  5s 11 16 mph 1010mb 82f 81f
7:30  -   -   -  11 16 mph 1009.9mb 82f 81f
7:20  -   -   -  13 16 mph 1009.8mb 82f 81f
7:10  -   -   -  11 13 mph 1009.6mb 82f 81f
7:00  -   -   -  13 16 mph 1009.6mb 82f 81f
6:50 2.5ft 7s 6s 11 16 mph 1009.5mb 82f 81f
6:40  -   -   -  11 13 mph 1009.5mb 82f 81f
6:30  -   -   -  11 13 mph 1009.5mb 82f 81f
6:20  -   -   -  11 13 mph 1009.3mb 82f 81f
6:10  -   -   -  11 13 mph 1009.3mb 82f 81f
6:00  -   -   -  11 13 mph 1009.1mb 82f 81f
5:50 2.5ft 8s 6s 11 13 mph 1009mb 82f 81f
5:40 2.5ft  -  6s 11 13 mph 1009.1mb 82f 81f
5:30  -   -   -  9 11 mph 1009mb 82f 81f
5:20  -   -   -  11 13 mph 1008.9mb 82f 81f
5:10  -   -   -  11 16 mph 1008.9mb 82f 81f
5:00  -   -   -  9 13 mph 1008.9mb 82f 82f
4:50 2.5ft 8s 6s 11 13 mph 1008.9mb 82f 82f
4:40 2.5ft  -  6s 9 11 mph 1008.9mb 82f 82f
4:30  -   -   -  11 13 mph 1008.9mb 82f 81f
4:20  -   -   -  9 13 mph 1008.9mb 82f 82f
4:10  -   -   -  9 11 mph 1009mb 82f 81f
4:00  -   -   -  9 11 mph 1009mb 82f 81f
3:50 2ft 7s 6s 7 9 mph 1009mb 82f 81f
3:40 2ft  -  6s 7 9 mph 1009mb 82f 81f
3:30  -   -   -  7 9 mph 1009mb 82f 81f
3:20  -   -   -  7 9 mph 1009.1mb 82f 81f
3:10  -   -   -  7 11 mph 1009.3mb 82f 81f
3:00  -   -   -  7 11 mph 1009.4mb 81f 81f
2:50 2.5ft 7s 6s 9 11 mph 1009.5mb 81f 81f
2:40 2.5ft  -  6s 7 11 mph 1009.5mb 82f 81f
2:30  -   -   -  9 11 mph 1009.5mb 82f 81f
2:20  -   -   -  9 11 mph 1009.8mb 82f 81f
2:10  -   -   -  9 11 mph 1009.8mb 81f 81f
2:00  -   -   -  7 11 mph 1009.9mb 82f 81f
1:50 2.5ft 8s 6s 9 11 mph 1010mb 81f 81f
1:40 2.5ft  -  6s 9 11 mph 1010.1mb 81f 81f
1:30  -   -   -  9 11 mph 1010.3mb 81f 81f
1:20  -   -   -  9 11 mph 1010.3mb 81f 81f
1:10  -   -   -  7 9 mph 1010.4mb 81f 81f
1:00  -   -   -  7 9 mph 1010.5mb 81f 81f
12:50 2.5ft 7s 6s 7 9 mph 1010.5mb 82f 81f
12:40 2.5ft  -  6s 7 9 mph 1010.6mb 82f 81f
12:30  -   -   -  7
mph
1010.8mb 82f 81f
12:20  -   -   -  7 9 mph 1010.9mb 81f 81f
12:10  -   -   -  7 9 mph 1010.9mb 81f 81f
12:00  -   -   -  7 9 mph 1011mb 82f 81f
11:50 2.5ft 7s 6s 7 9 mph 1011mb 82f 81f
11:40 2.5ft  -  6s 7 9 mph 1011mb 81f 81f
11:30  -   -   -  7 9 mph 1011mb 81f 80f
11:20  -   -   -  7 9 mph 1011.3mb 81f 80f
11:10  -   -   -  7
mph
1011.4mb 81f 80f
11:00  -   -   -  7 9 mph 1011.4mb 81f 80f
10:50 2.5ft 8s 6s 7 9 mph 1011.3mb 81f 80f
10:40 2.5ft  -  6s 7 9 mph 1011.4mb 81f 80f
10:30  -   -   -  7 9 mph 1011.4mb 81f 80f
10:20  -   -   -  7
mph
1011.4mb 81f 80f
10:10  -   -   -  7
mph
1011.3mb 81f 80f
10:00  -   -   -  7 9 mph 1011.3mb 81f 80f
9:50 2.5ft 7s 6s 7 9 mph 1011.4mb 81f 80f
9:40 2.5ft  -  6s 7 9 mph 1011.3mb 81f 80f
9:30  -   -   -  7 9 mph 1011.3mb 81f 80f
9:20  -   -   -  7 9 mph 1011.4mb 81f 80f
9:10  -   -   -  9
mph
1011.4mb 81f 80f
9:00  -   -   -  9 11 mph 1011.1mb 81f 80f
8:50 2.5ft 8s 6s 9 11 mph 1011mb 81f 80f
8:40 2.5ft  -  6s 9 11 mph 1010.9mb 81f 80f
8:30  -   -   -  9 11 mph 1010.9mb 81f 80f
8:20  -   -   -  9 11 mph 1010.6mb 81f 80f
8:10  -   -   -  9 11 mph 1010.5mb 81f 80f
8:00  -   -   -  9 11 mph 1010.5mb 81f 80f
7:50 2.5ft 7s 6s 9 11 mph 1010.3mb 81f 80f
7:40  -   -   -  9 11 mph 1010.1mb 81f 80f
7:30  -   -   -  9 11 mph 1010mb 81f 80f
7:20  -   -   -  9 11 mph 1010mb 81f 80f
7:10  -   -   -  9 11 mph 1010mb 81f 80f
7:00  -   -   -  9 11 mph 1009.9mb 81f 80f
6:50 2.5ft 8s 6s 9 11 mph 1009.6mb 81f 80f
6:40 2.5ft  -  6s 9 11 mph 1009.5mb 81f 80f
6:30  -   -   -  9 11 mph 1009.4mb 81f 80f
6:20  -   -   -  9 11 mph 1009.3mb 81f 80f
6:10  -   -   -  7 9 mph 1009.1mb 81f 80f
6:00  -   -   -  7 9 mph 1009mb 81f 80f
5:50 2.5ft 7s 6s 7 9 mph 1009mb 81f 80f
5:40 2.5ft  -  6s 7 9 mph 1008.6mb 81f 80f
5:30  -   -   -  7 9 mph 1008.5mb 81f 80f
5:20  -   -   -  7 9 mph 1008.4mb 81f 80f
5:10  -   -   -  7 9 mph 1008.4mb 81f 80f
5:00  -   -   -  7 9 mph 1008.1mb 81f 80f
4:50 3ft 8s 6s 7 9 mph 1008mb 81f 80f
4:40 3ft  -  6s 7 9 mph 1008mb 81f 80f
4:30  -   -   -  7 9 mph 1008mb 81f 80f
4:20  -   -   -  7 9 mph 1007.9mb 81f 80f
4:10  -   -   -  7 9 mph 1007.8mb 81f 80f
4:00  -   -   -  7 9 mph 1007.8mb 81f 80f
3:50 3ft 7s 6s 7 9 mph 1007.8mb 81f 80f
3:40  -   -   -  9 11 mph 1007.8mb 81f 80f
3:30  -   -   -  7 11 mph 1007.9mb 81f 80f
3:20  -   -   -  9 11 mph 1007.9mb 81f 80f
3:10  -   -   -  9 11 mph 1007.9mb 81f 80f
3:00  -   -   -  9
mph
1007.9mb 81f 80f
2:50 3ft 8s 6s 9 11 mph 1008mb 81f 80f
2:40 3ft  -  6s 7 9 mph 1008mb 81f 80f
2:30  -   -   -  7 9 mph 1008mb 81f 80f
2:20  -   -   -  7 9 mph 1008mb 81f 80f
2:10  -   -   -  7 9 mph 1008.3mb 81f 80f
2:00  -   -   -  4 7 mph 1008.4mb 81f 80f
1:50 3.5ft 7s 6s 4 9 mph 1008.5mb - 80f
1:40 3.5ft  -  6s 4 9 mph 1008.6mb 81f 80f
1:30  -   -   -  4 7 mph 1008.6mb 81f 80f
1:20  -   -   -  4 7 mph 1008.9mb 81f 80f
1:10  -   -   -  4 7 mph 1008.9mb 81f 80f
1:00  -   -   -  4 7 mph 1009mb 81f 80f
12:50 3.5ft 8s 6s 4 7 mph 1009.3mb 81f 80f
12:40  -   -   -  4 7 mph 1009.4mb 81f 80f
12:30  -   -   -  4 7 mph 1009.5mb 81f 80f
12:20  -   -   -  4 7 mph 1009.6mb 81f 80f
12:10  -   -   -  2 4 mph 1009.8mb 81f 80f
12:00  -   -   -  2 4 mph 1009.9mb 81f 80f
sáb 04/22 11:50 3ft 8s 6s 2 4 mph 1009.8mb 81f 80f
11:40 3ft  -  6s 2 4 mph 1009.6mb 81f 80f
11:30  -   -   -  2 4 mph 1009.9mb 81f 80f
11:20  -   -   -  2 4 mph 1009.8mb 81f 80f
11:10  -   -   -  2
mph
1009.8mb 81f 80f
11:00  -   -   -  2 4 mph 1009.6mb 81f 80f
10:50 3.5ft 8s 6s 2 4 mph 1010mb 81f 80f
10:40 3.5ft  -  6s 2 4 mph 1010mb 81f 80f
10:30  -   -   -  2 4 mph 1010mb 81f 80f
10:20  -   -   -   -  2 mph 1010mb 81f 80f
10:10  -   -   -  2 4 mph 1010mb 81f 80f
10:00  -   -   -  4
mph
1010.3mb 81f 80f
9:50 3.5ft 8s 6s 4 7 mph 1010.5mb 81f 80f
9:40  -   -   -  4 7 mph 1010.4mb - 80f
9:30  -   -   -  4 7 mph 1010.3mb 81f 80f
9:20  -   -   -  4 7 mph 1010.1mb 81f 80f
9:10  -   -   -  7 9 mph 1009.9mb 81f 81f
9:00  -   -   -  7 9 mph 1010mb 81f 80f
8:50 4ft 8s 6s 7 9 mph 1009.8mb 81f 80f
8:40  -   -   -  7 9 mph 1009.8mb 81f 81f
8:30 4ft  -  6s 7 9 mph 1009.5mb 81f 80f
8:20  -   -   -  4 7 mph 1009.4mb - 80f
8:10  -   -   -  4 7 mph 1009.1mb - 80f
8:00  -   -   -  4 9 mph 1009mb 81f 80f
7:40 3.5ft 8s 6s  -  mph - - -
7:30  -   -   -  4 9 mph 1008.6mb 81f 80f
7:20  -   -   -  7 9 mph 1008.4mb 81f 81f
7:10  -   -   -  7 9 mph 1008.5mb 81f 81f
7:00  -   -   -  7 9 mph 1008.4mb 81f 81f
6:50 3.5ft 8s 6s 7 11 mph 1008.4mb 81f 81f
6:40 3.5ft  -  6s 7 11 mph 1008.4mb 81f 81f
6:30  -   -   -  7 11 mph 1008.4mb 81f 81f
6:20  -   -   -  9 11 mph 1008.3mb 81f 81f
6:10  -   -   -  9 11 mph 1008mb 81f 81f
6:00  -   -   -  9 11 mph 1008mb - 81f
5:50 4.5ft 8s 7s 9 11 mph 1008mb 81f 81f
5:40 4.5ft  -  7s 9 13 mph 1008mb 81f 81f
5:30  -   -   -  7 11 mph 1008mb 81f 81f
5:20  -   -   -  9 11 mph 1008mb 81f 81f
5:10  -   -   -  9 11 mph 1008mb 81f 81f
5:00  -   -   -  9 13 mph 1008mb 81f 81f
4:50 5ft 8s 7s 9 11 mph 1008mb 81f 81f
4:40 5ft  -  7s 9 13 mph 1008mb 81f 81f
4:30  -   -   -  9 13 mph 1008mb 81f 81f
4:20  -   -   -  9 13 mph 1008.3mb 81f 81f
4:10  -   -   -  9 13 mph 1008.4mb 81f 81f
4:00  -   -   -  9 13 mph 1008.4mb 81f 81f
3:50 4.5ft 8s 6s 11 13 mph 1008.5mb 81f 81f
3:40  -   -   -  9 13 mph 1008.5mb 81f 81f
3:30  -   -   -  9 13 mph 1008.5mb 81f 81f
3:20  -   -   -  9 13 mph 1008.6mb 81f 81f
3:10  -   -   -  11 16 mph 1008.8mb 81f 81f
3:00  -   -   -  11 16 mph 1008.8mb 81f 81f
2:50 4ft 7s 6s 11 13 mph 1008.9mb 81f 81f
2:40  -   -   -  11 16 mph 1009mb 81f 81f
2:30  -   -   -  11 16 mph 1009.1mb 81f 81f
2:20  -   -   -  11 16 mph 1009.3mb 81f 81f
2:10  -   -   -  13 18 mph 1009.4mb 81f 81f
2:00  -   -   -  11 18 mph 1009.5mb 81f 81f
1:50 4ft 7s 6s 11 16 mph 1009.6mb 81f 81f
1:40  -   -   -  11 16 mph 1009.6mb 81f 81f
1:30  -   -   -  11 13 mph 1009.8mb 81f 81f
1:20  -   -   -  11 16 mph 1009.9mb 81f 81f
1:10  -   -   -  11 13 mph 1009.9mb 81f 81f
1:00  -   -   -  11 13 mph 1010mb 81f 81f
12:50 4.5ft 8s 7s 11 13 mph 1010mb 81f 81f
12:40  -   -   -  9 16 mph 1010.1mb 81f 81f
12:30  -   -   -  9 13 mph 1010.3mb 81f 81f
12:20  -   -   -  11 13 mph 1010.1mb 81f 81f
12:10  -   -   -  11 13 mph 1010.1mb 81f 81f
12:00  -   -   -  9 13 mph 1010.3mb 81f 81f
11:50 4.5ft 8s 6s 9 13 mph 1010.3mb 81f 81f
11:40 4.5ft  -  6s 9 11 mph 1010.4mb 81f 81f
11:30  -   -   -  9 13 mph 1010.4mb 81f 81f
11:20  -   -   -  9 13 mph 1010.5mb 81f 81f
11:10  -   -   -  11 13 mph 1010.5mb 81f 81f
11:00  -   -   -  11 13 mph 1010.5mb 81f 81f
10:50 4ft 7s 6s 9 13 mph 1010.5mb 81f 81f
10:40 4ft  -  6s 9 11 mph 1010.6mb 81f 81f
10:30  -   -   -  9 11 mph 1010.6mb 81f 80f
10:20  -   -   -  9 11 mph 1010.8mb 80f 80f
10:10  -   -   -  9 11 mph 1010.6mb 80f 81f
10:00  -   -   -  9 11 mph 1010.5mb 80f 80f
9:50 4.5ft 7s 6s 9 11 mph 1010.5mb 80f 80f
9:40 4.5ft  -  6s 9 11 mph 1010.5mb 80f 80f
9:30  -   -   -  9 11 mph 1010.5mb 80f 80f
9:20  -   -   -  7 11 mph 1010.5mb 80f 81f
9:10  -   -   -  7 9 mph 1010.4mb 80f 81f
9:00  -   -   -  7 9 mph 1010.3mb 80f 80f
8:50 4.5ft 8s 6s 7 9 mph 1010.3mb 80f 80f
8:40  -   -   -  7 9 mph 1010.3mb 80f 80f
8:30  -   -   -  7 9 mph 1010mb 80f 80f
8:20  -   -   -  7 9 mph 1010mb 80f 80f
8:10  -   -   -  7 9 mph 1009.9mb 80f 80f
8:00  -   -   -  7 9 mph 1009.8mb 80f 80f
7:50 4.5ft 7s 6s 7 9 mph 1009.6mb 80f 80f
7:40  -   -   -  7 9 mph 1009.6mb 80f 80f
7:30  -   -   -  9
mph
1009.5mb 80f 80f
7:20  -   -   -  7 9 mph 1009.5mb 80f 80f
7:10  -   -   -  7 9 mph 1009.5mb 80f 80f
7:00  -   -   -  7 9 mph 1009.3mb 80f 80f
6:50 4.5ft 8s 6s 7 11 mph 1009.1mb 80f 80f
6:40  -   -   -  7 9 mph 1009mb 80f 80f
6:30  -   -   -  9 11 mph 1008.9mb 80f 80f
6:20  -   -   -  7 11 mph 1008.6mb 80f 80f
6:10  -   -   -  7 9 mph 1008.6mb 80f 80f
6:00  -   -   -  7 9 mph 1008.5mb 80f 80f
5:50 4.5ft 8s 6s 9 11 mph 1008.5mb 80f 80f
5:40 4.5ft  -  6s 7 9 mph 1008.4mb 80f 80f
5:30  -   -   -  7 11 mph 1008.3mb 80f 80f
5:20  -   -   -  9 11 mph 1008.1mb 80f 80f
5:10  -   -   -  9 11 mph 1008mb 80f 80f
5:00  -   -   -  9 11 mph 1008mb 80f 80f
4:50 4.5ft 8s 6s 9 11 mph 1007.9mb 80f 80f
4:40 4.5ft  -  6s 9 11 mph 1007.9mb 80f 80f
4:30  -   -   -  9 11 mph 1007.8mb 80f 80f
4:20  -   -   -  9 11 mph 1007.8mb 80f 80f
4:10  -   -   -  9 11 mph 1007.6mb 80f 80f
4:00  -   -   -  9 11 mph 1007.5mb 80f 80f
3:50 4.5ft 7s 6s 9 11 mph 1007.5mb 80f 80f
3:40 4.5ft  -  6s 9 11 mph 1007.5mb 80f 80f
3:30  -   -   -  9 11 mph 1007.5mb 80f 80f
3:20  -   -   -  9 11 mph 1007.8mb 80f 80f
3:10  -   -   -  9 11 mph 1007.8mb 81f 80f
3:00  -   -   -  9 11 mph 1008mb 80f 80f
2:50 4.5ft 8s 6s 9 11 mph 1008mb 81f 80f
2:40  -   -   -  9 11 mph 1008.4mb 81f 80f
2:30  -   -   -  9 11 mph 1008.5mb 81f 80f
2:20  -   -   -  9 11 mph 1008.5mb 81f 80f
2:10  -   -   -  9 11 mph 1008.4mb 81f 80f
2:00  -   -   -  9 11 mph 1008.4mb 80f 80f
1:50 4.5ft 7s 6s 9 11 mph 1008.5mb 80f 80f
1:40  -   -   -  9 11 mph 1008.6mb 80f 80f
1:30  -   -   -  9 11 mph 1008.8mb 80f 80f
1:20  -   -   -  9 11 mph 1009mb 80f 80f
1:10  -   -   -  9 11 mph 1009mb 80f 80f
1:00  -   -   -  9 11 mph 1009.3mb 80f 80f
12:50 4.5ft 7s 6s 9 13 mph 1009.3mb 80f 80f
12:40 4.5ft  -  6s 9 13 mph 1009.3mb 80f 80f
12:30  -   -   -  9 13 mph 1009.4mb 80f 80f
12:20  -   -   -  9 11 mph 1009.5mb 81f 80f
12:10  -   -   -  9 11 mph 1009.5mb 81f 80f
12:00  -   -   -  9 11 mph 1009.6mb 81f 80f
vie 04/21 11:50 5ft 7s 6s 9 13 mph 1009.8mb 81f 80f
11:40 5ft  -  6s 9 13 mph 1009.8mb 81f 80f
11:30  -   -   -  9 11 mph 1009.8mb 81f 80f
11:20  -   -   -  9 13 mph 1009.8mb 81f 80f
11:10  -   -   -  9 13 mph 1009.9mb 81f 80f
11:00  -   -   -  9 11 mph 1009.9mb 81f 80f
10:50 5ft 7s 6s 7 11 mph 1010mb 81f 80f
10:40 5ft  -  6s 7 11 mph 1010mb 81f 80f
10:30  -   -   -  7 9 mph 1010mb 81f 80f
10:20  -   -   -  7 9 mph 1010.3mb 81f 80f
10:10  -   -   -  7 9 mph 1010.1mb 81f 80f
10:00  -   -   -  7 9 mph 1010.3mb 81f 80f
9:50 5ft 8s 6s 7 9 mph 1010.3mb 81f 80f
9:40  -   -   -  7 9 mph 1010.3mb 81f 80f
9:30  -   -   -  7 11 mph 1010mb 81f 80f
9:20  -   -   -  7 11 mph 1010mb 81f 80f
9:10  -   -   -  9 11 mph 1010mb 81f 80f
9:00  -   -   -  9 11 mph 1010mb 81f 80f
8:10  -   -   -  9 11 mph 1009.5mb 81f 80f
8:00  -   -   -  9 11 mph 1009.4mb 81f 80f
7:50 5ft 8s 6s 9 11 mph 1009.3mb - 80f
7:40  -   -   -  9 11 mph 1009.3mb 81f 80f
7:30  -   -   -  9 13 mph 1009mb 81f 80f
7:20  -   -   -  9 13 mph 1009mb 81f 80f
7:10  -   -   -  9 11 mph 1009mb 81f 80f
7:00  -   -   -  7 9 mph 1009mb 81f 80f
6:50 4.5ft 7s 6s 9 11 mph 1009mb 81f 80f
6:40  -   -   -  7 11 mph 1008.9mb 81f 80f
6:30  -   -   -  9 11 mph 1008.8mb 82f 80f
6:20  -   -   -  9 11 mph 1008.6mb 82f 80f
6:10  -   -   -  7 11 mph 1008.6mb 82f 80f
6:00  -   -   -  7 9 mph 1008.6mb 82f 80f
5:50 4.5ft 7s 6s 7 9 mph 1008.6mb 82f 80f
5:40 4.5ft  -  6s 7 9 mph 1008.6mb 82f 80f
5:30  -   -   -  7 9 mph 1008.6mb 82f 79f
5:20  -   -   -  9 11 mph 1008.9mb 82f 79f
5:10  -   -   -  9 13 mph 1008.6mb 82f 79f
5:00  -   -   -  9 11 mph 1008.6mb 81f 79f
4:50 4.5ft 7s 6s 9 13 mph 1008.6mb 81f 79f
4:40  -   -   -  9 11 mph 1008.6mb 82f 79f
4:30  -   -   -  9 13 mph 1008.6mb 82f 78f
4:20  -   -   -  9 13 mph 1008.6mb 82f 79f
4:10  -   -   -  7 11 mph 1008.6mb 82f 80f
4:00  -   -   -  7 11 mph 1008.6mb 82f 79f
3:50 5ft 8s 6s 7 9 mph 1008.8mb 82f 79f
3:40 5ft  -  6s 7 11 mph 1008.9mb 82f 79f
3:30  -   -   -  9 13 mph 1008.8mb 82f 80f
3:20  -   -   -  7 9 mph 1008.9mb 82f 79f
3:10  -   -   -  9 11 mph 1008.9mb 82f 79f
3:00  -   -   -  7 9 mph 1009mb 82f 79f
2:50 4.5ft 7s 6s 7 11 mph 1009mb 82f 79f
2:40 4.5ft  -  6s 9 11 mph 1009.1mb 82f 79f
2:30  -   -   -  9 11 mph 1009.3mb - 79f
2:20  -   -   -  9 11 mph 1009.5mb 81f 79f
2:10  -   -   -  9 11 mph 1009.5mb 81f 80f
2:00  -   -   -  7 9 mph 1009.6mb 81f 81f
1:50 4.5ft 8s 6s 2 7 mph 1009.9mb 81f 81f
1:40  -   -   -   -  2 mph 1010mb 81f 81f
1:30  -   -   -   -  2 mph 1010mb 81f 81f
1:20  -   -   -  2 4 mph 1010.1mb 81f 80f
1:10  -   -   -   -  4 mph 1010.1mb 81f 81f
1:00  -   -   -   -  4 mph 1010.3mb 81f 80f
12:50 4.5ft 7s 6s 2 4 mph 1010.4mb 81f 80f
12:40  -   -   -  2 4 mph 1010.5mb 81f 80f
12:30  -   -   -  2 7 mph 1010.6mb 81f 80f
12:20  -   -   -  2 4 mph 1010.8mb 81f 80f
12:10  -   -   -  2 7 mph 1011mb 81f 80f
12:00  -   -   -   -  2 mph 1011mb 81f 81f
11:50 4.5ft 7s 6s  -  2 mph 1011.1mb 81f 81f
11:40  -   -   -   -  2 mph 1011.3mb 80f 81f
11:30  -   -   -   -  2 mph 1011.4mb 81f 81f
11:20  -   -   -  2 4 mph 1011.5mb 81f 80f
11:10  -   -   -  2 4 mph 1011.5mb 81f 80f
11:00  -   -   -   -  2 mph 1011.5mb 81f 80f
10:50 4.5ft 7s 6s  -  2 mph 1011.6mb 81f 80f
10:40 4.5ft  -  6s  -  2 mph 1011.6mb 81f 80f
10:30  -   -   -   -  2 mph 1011.6mb 81f 80f
10:20  -   -   -   -  2 mph 1011.6mb 81f 81f
10:10  -   -   -   -  2 mph 1011.6mb 80f 81f
10:00  -   -   -   -  2 mph 1011.6mb 80f 81f
9:50 4.5ft 7s 6s  -  2 mph 1011.9mb 80f 81f
9:40 4.5ft  -  6s 2 4 mph 1011.9mb 81f 80f
9:30  -   -   -   -  2 mph 1011.6mb 80f 81f
9:20  -   -   -   -  2 mph 1011.5mb 80f 80f
9:10  -   -   -   -  2 mph 1011.5mb 80f 80f
9:00  -   -   -  2 4 mph 1011.4mb 80f 80f
8:40 4.5ft  -  6s 4 7 mph 1011.4mb 80f 80f
8:30  -   -   -  2 4 mph 1011.4mb 80f 80f
8:20  -   -   -  4
mph
1011.4mb 80f 80f
8:10  -   -   -  2 4 mph 1011.4mb 80f 80f
8:00  -   -   -  2 4 mph 1011.4mb 80f 80f
7:50 4.5ft 7s 6s  -  2 mph 1011.1mb 80f 80f
7:40  -   -   -  2 4 mph 1011.1mb 80f 80f
7:30  -   -   -  2 4 mph 1011.3mb 80f 79f
7:20  -   -   -  4 7 mph 1011.1mb 80f 79f
7:10  -   -   -  4 7 mph 1011mb 80f 79f
7:00  -   -   -  4 9 mph 1011mb 80f 78f
6:50 4.5ft 7s 6s 7 9 mph 1011mb 80f 78f
6:40  -   -   -  7 9 mph 1010.9mb 80f 78f
6:30  -   -   -  7 9 mph 1010.9mb 80f 78f
6:20  -   -   -  7 9 mph 1010.8mb 80f 78f
6:10  -   -   -  7 11 mph 1010.6mb 80f 78f
6:00  -   -   -  9 11 mph 1010.6mb 80f 78f
5:50 5ft 7s 6s 9 11 mph 1010.6mb - 78f
5:40 5ft  -  6s 9 11 mph 1010.5mb 80f 78f
5:30  -   -   -  9 11 mph 1010.5mb 80f 78f
5:20  -   -   -  11 13 mph 1010.5mb 80f 78f
5:10  -   -   -  11 13 mph 1010.5mb 80f 78f
5:00  -   -   -  11 13 mph 1010.5mb 80f 78f
4:50 4.5ft 7s 5s 11 13 mph 1010.5mb 80f 78f
4:40 4.5ft  -  5s 11 13 mph 1010.5mb 80f 77f
4:30  -   -   -  11 13 mph 1010.4mb 80f 77f
4:20  -   -   -  11 13 mph 1010.3mb 80f 77f
4:10  -   -   -  11 13 mph 1010.4mb 80f 77f
4:00  -   -   -  9 11 mph 1010.3mb 80f 77f
3:50 5ft 7s 6s 9 13 mph 1010.4mb 80f 77f
3:40 5ft  -  6s 11 13 mph 1010.4mb 80f 77f
3:30  -   -   -  11 13 mph 1010.5mb 80f 77f
3:20  -   -   -  11 13 mph 1010.6mb 80f 77f
3:10  -   -   -  11 13 mph 1010.6mb 80f 77f
3:00  -   -   -  13 16 mph 1010.6mb 80f 77f
2:50 5ft 7s 5s 13 16 mph 1010.6mb 80f 77f
2:40  -   -   -  13 18 mph 1010.8mb 80f 77f
2:30  -   -   -  16 18 mph 1010.9mb 80f 77f
2:20  -   -   -  16 20 mph 1011.1mb 80f 76f
2:10  -   -   -  16 18 mph 1011.3mb 80f 77f
2:00  -   -   -  16 18 mph 1011.4mb 80f 77f
1:50 5ft 7s 5s 13 18 mph 1011.6mb 80f 76f
1:40 5ft  -  5s 13 18 mph 1011.6mb 80f 76f
1:30  -   -   -  13 18 mph 1011.9mb 80f 76f
1:20  -   -   -  16 18 mph 1012mb 80f 76f
1:10  -   -   -  16 20 mph 1012.1mb 80f 76f
1:00  -   -   -  18 20 mph 1012.1mb 80f 75f
12:50 5ft 6s 5s 16 20 mph 1012.3mb 80f 75f
12:40 5ft  -  5s 18 22 mph 1012.3mb 80f 75f
12:30  -   -   -  20 22 mph 1012.3mb 80f 75f
12:20  -   -   -  20 25 mph 1012.1mb 80f 75f
12:10  -   -   -  20 25 mph 1012.5mb 80f 76f
12:00  -   -   -  20 25 mph 1012.8mb 80f 75f
jue 04/20 11:50 5ft 6s 5s 20 25 mph 1012.8mb 80f 75f
11:40 5ft  -  5s 22 27 mph 1013mb 80f 75f
11:30  -   -   -  20 25 mph 1013mb 80f 76f
11:20  -   -   -  20 25 mph 1013.3mb 80f 76f
11:10  -   -   -  18 22 mph 1013.3mb 80f 76f
11:00  -   -   -  18 25 mph 1013.3mb 80f 76f
10:50 5ft 6s 5s 20 25 mph 1013.3mb 80f 76f
10:40 5ft  -  5s 18 22 mph 1013.3mb 80f 76f
10:30  -   -   -  20 27 mph 1013.3mb 80f 75f
10:20  -   -   -  20 27 mph 1013.3mb 80f 76f
10:10  -   -   -  20 27 mph 1013.3mb 80f 76f
10:00  -   -   -  22 27 mph 1013.3mb 80f 76f
9:50 4.5ft 6s 5s 18 27 mph 1013.4mb 80f 75f
9:40  -   -   -  22 27 mph 1013.3mb 80f 76f
9:30  -   -   -  18 25 mph 1013.1mb 80f 76f
9:20  -   -   -  9 16 mph 1013.3mb 80f 79f
9:10  -   -   -  7 9 mph 1012.8mb 80f 78f
9:00  -   -   -  7 11 mph 1012.4mb 80f 78f
8:50 4ft 6s 5s 11 16 mph 1012.1mb 80f 78f
8:40 4ft  -  5s 13 18 mph 1012.3mb 80f 78f
8:30  -   -   -  13 18 mph 1012.1mb 80f 78f
8:20  -   -   -  11 18 mph 1012.1mb 80f 80f
8:10  -   -   -  9 13 mph 1012mb 80f 80f
8:00  -   -   -  9 13 mph 1011.9mb 80f 80f
7:50 3.5ft 6s 5s 9 11 mph 1011.9mb 80f 80f
7:40  -   -   -  9 13 mph 1011.8mb 80f 80f
7:30  -   -   -  11 13 mph 1011.6mb 80f 80f
7:20  -   -   -  11 16 mph 1011.6mb 80f 80f
7:10  -   -   -  11 16 mph 1011.8mb 80f 80f
7:00  -   -   -  9 11 mph 1011.9mb 80f 80f
6:50 4ft 6s 5s 11 16 mph 1011.5mb 80f 80f
6:40  -   -   -  11 13 mph 1011.4mb 80f 80f
6:30  -   -   -  9 16 mph 1011.1mb 80f 80f
6:20  -   -   -  9 13 mph 1011mb 80f 80f
6:10  -   -   -  11 13 mph 1010.9mb 80f 80f
6:00  -   -   -  9 11 mph 1010.8mb 80f 80f
5:50 4ft 6s 5s 9 11 mph 1010.5mb 80f 79f
5:40 4ft  -  5s 9 13 mph 1010.1mb 80f 79f
5:30  -   -   -  13 18 mph 1010.3mb 80f 79f
5:20  -   -   -  11 16 mph 1010.3mb 80f 80f
5:10  -   -   -  11 13 mph 1010.4mb 80f 80f
5:00  -   -   -  9 11 mph 1010.5mb 80f 79f
4:50  -   -   -  11 13 mph 1010.8mb 80f 79f
4:40  -   -   -  11 13 mph 1010.8mb 80f 79f
4:30  -   -   -   -  mph 1010.9mb 80f -
4:20  -   -   -  16 20 mph 1011mb 80f 78f
4:10  -   -   -  16 20 mph 1011mb 80f 80f
4:00  -   -   -  16 22 mph 1011.4mb 80f 80f
3:50 4.5ft 6s 5s 13 18 mph 1011.5mb 80f 80f
3:40  -   -   -  11 16 mph 1011.5mb 80f 80f
3:30  -   -   -  11 13 mph 1011.6mb 80f 80f
3:20  -   -   -  11 16 mph 1011.5mb 80f 80f
3:10  -   -   -  11 13 mph 1011.5mb 80f 80f
3:00  -   -   -  11 16 mph 1011.8mb 80f 80f
2:50 4ft 6s 5s 11 16 mph 1012mb 80f 80f
2:40  -   -   -  11 13 mph 1012.1mb 80f 81f
2:30  -   -   -  11 13 mph 1012.4mb 80f 80f
2:20  -   -   -  11 13 mph 1013.1mb 80f 81f
2:10  -   -   -  11 13 mph 1012.4mb 80f 81f
2:00  -   -   -  11 13 mph 1012.5mb 80f 81f
1:50 4.5ft 7s 5s 11 16 mph 1012.8mb 80f 81f
1:40 4.5ft  -  5s 11 16 mph 1013mb 80f 81f
1:30  -   -   -  11 13 mph 1013mb 80f 80f
1:20  -   -   -  11 13 mph 1013mb 80f 81f
1:10  -   -   -  11 13 mph 1013.1mb 80f 81f
1:00  -   -   -  11 13 mph 1013.3mb 80f 81f
12:50 4ft 6s 5s 11 16 mph 1013.3mb 80f 81f
12:40 4ft  -  5s 11 16 mph 1013.5mb 80f 81f
12:30  -   -   -  13 16 mph 1013.5mb 80f 81f
12:20  -   -   -  11 13 mph 1013.8mb 80f 81f
12:10  -   -   -  11 16 mph 1014mb 80f 81f
12:00  -   -   -  11 13 mph 1014mb 80f 81f
11:50 4ft 7s 5s 11 13 mph 1014.4mb 80f 81f
11:40 4ft  -  5s 11 16 mph 1014.5mb 80f 80f
11:30  -   -   -  13 16 mph 1014.6mb 80f 80f
11:20  -   -   -  13 16 mph 1014.4mb 80f 80f
11:10  -   -   -  13 18 mph 1014.5mb 80f 80f
11:00  -   -   -  13 18 mph 1014.5mb 80f 80f
10:50 4.5ft 7s 5s 11 16 mph 1014.5mb 80f 80f
10:40  -   -   -  13 16 mph 1014.5mb 80f 80f
10:30  -   -   -  13 18 mph 1014.6mb 80f 80f
10:20  -   -   -  13 18 mph 1014.6mb 80f 80f
10:10  -   -   -  13 18 mph 1014.6mb 80f 80f
10:00  -   -   -  13 18 mph 1014.6mb 80f 80f
9:50 4.5ft 7s 5s 13 18 mph 1014.5mb 80f 80f
9:40 4.5ft  -  5s 13 18 mph 1014.3mb 80f 80f
9:30  -   -   -  13 16 mph 1013.9mb 80f 80f